Location: Gajan
(43.0218°N, 1.1244°E)
Time: 14:49:36
(UTC+00:00)

CZ-2C R/B - Pass Details

Date: 22 April 2021
Orbit: 784 x 871 km, 98.2° (Epoch: 12 May)

Event Time Altitude Azimuth Distance (km) Brightness Sun altitude
Rises 19:14:43 0° 9° (N) 3,291 6.0 -5.7°
Reaches altitude 10° 19:17:03 10° 7° (N) 2,364 5.3 -6.1°
Maximum altitude 19:22:12 63° 287° (WNW) 894 3.2 -6.9°
Drops below altitude 10° 19:27:24 10° 208° (SSW) 2,391 5.1 -7.8°
Sets 19:29:46 0° 205° (SSW) 3,331 5.8 -8.2°
